Weather History for Mercury, NV

Change the Weather History Date:

Monday, November 26, 2012

  Actual Average Record
Temperature  
Mean Temperature 53 °F -  
Max Temperature 69 °F 57 °F 82 °F (1999)
Min Temperature 37 °F 34 °F 27 °F (2006)
Degree Days  
Heating Degree Days 12    
Growing Degree Days 3 (Base 50)    
Moisture  
Dew Point 18 °F    
Average Humidity 27    
Maximum Humidity 45    
Minimum Humidity 7    
Precipitation  
Precipitation 0.00 in - - ()
Sea Level Pressure  
Sea Level Pressure 30.05 in    
Wind  
Wind Speed 5 mph (ENE)    
Max Wind Speed 12 mph    
Max Gust Speed -    
Visibility 10 miles    
Events      
Averages and records for this station are not official NWS values.
T = Trace of Precipitation, MM = Missing Value Source: NWS Daily Summary

Daily Weather History Graph

Daily Weather History Graph

Search for Another Location

Airport:

Trip Planner

Search our weather history database for the weather conditions in past years. The results will help you decide how hot, cold, wet, or windy it might be!

Date:

Astronomy

Nov. 26, 2012 Rise Set
Actual Time 6:33 AM PST 4:29 PM PST
Civil Twilight 6:05 AM PST 4:57 PM PST
Nautical Twilight 5:33 AM PST 5:29 PM PST
Astronomical Twilight 5:02 AM PST 6:00 PM PST
Moon 3:23 PM PST (11/26) 4:49 AM PST (11/26)
Length of Visible Light 10h 52m
Length of Day
9h 55m
Waxing Gibbous, 97% of the Moon is Illuminated
Nov 26
Waxing Gibbous
Nov 28
Full
Dec 6
Last Quarter
Dec 13
New
Dec 19
First Quarter

Hourly Weather History & Observations

Time (PST) Temp. Windchill Dew Point Humidity Pressure Visibility Wind Dir Wind Speed Gust Speed Precip Events Conditions
12:52 AM 42.1 °F 40.2 °F 19.9 °F 41% 29.95 in 10.0 mi East 3.5 mph - N/A   Clear
1:52 AM 39.9 °F - 19.0 °F 43% 29.97 in 10.0 mi Calm Calm - N/A   Clear
2:52 AM 39.9 °F - 19.9 °F 45% 29.98 in 10.0 mi Calm Calm - N/A   Clear
3:52 AM 39.0 °F 34.0 °F 19.0 °F 45% 29.98 in 10.0 mi ESE 6.9 mph - N/A   Clear
4:52 AM 39.9 °F 35.8 °F 19.0 °F 43% 30.00 in 10.0 mi North 5.8 mph - N/A   Clear
6:52 AM 46.9 °F - 19.0 °F 33% 30.06 in 10.0 mi NE 10.4 mph - N/A   Clear
7:52 AM 50.0 °F - 19.0 °F 29% 30.07 in 10.0 mi East 9.2 mph - N/A   Clear
8:52 AM 59.0 °F - 19.0 °F 21% 30.08 in 10.0 mi NNE 11.5 mph - N/A   Clear
9:52 AM 62.1 °F - 18.0 °F 18% 30.09 in 10.0 mi NE 6.9 mph - N/A   Clear
10:52 AM 64.0 °F - 19.0 °F 18% 30.08 in 10.0 mi Variable 5.8 mph - N/A   Clear
11:52 AM 66.0 °F - 17.1 °F 15% 30.05 in 10.0 mi SE 10.4 mph - N/A   Clear
12:52 PM 68.0 °F - 18.0 °F 15% 30.03 in 10.0 mi ESE 10.4 mph - N/A   Clear
1:52 PM 68.0 °F - 17.1 °F 14% 30.02 in 10.0 mi SE 8.1 mph - N/A   Clear
2:52 PM 68.0 °F - 17.1 °F 14% 30.01 in 10.0 mi SE 8.1 mph - N/A   Clear
3:52 PM 66.0 °F - 17.1 °F 15% 30.03 in 10.0 mi SE 8.1 mph - N/A   Clear
4:52 PM 59.0 °F - 18.0 °F 20% 30.05 in 10.0 mi Calm Calm - N/A   Clear
5:52 PM 54.0 °F - 18.0 °F 24% 30.08 in 10.0 mi East 6.9 mph - N/A   Clear
6:52 PM 50.0 °F - 17.1 °F 27% 30.09 in 10.0 mi Calm Calm - N/A   Clear
7:52 PM 51.1 °F - 18.0 °F 27% 30.10 in 10.0 mi Calm Calm - N/A   Clear
8:52 PM 46.9 °F - 18.0 °F 32% 30.11 in 10.0 mi Calm Calm - N/A   Clear
9:52 PM 43.0 °F 41.3 °F 17.1 °F 35% 30.13 in 10.0 mi NE 3.5 mph - N/A   Clear
10:52 PM 43.0 °F 41.3 °F 19.0 °F 38% 30.13 in 10.0 mi NE 3.5 mph - N/A   Clear
11:52 PM 43.0 °F 39.5 °F 19.0 °F 38% 30.13 in 10.0 mi North 5.8 mph - N/A   Clear